EW8380 Weather Reports


Display with metric or nautical units.
time (UTC)temp
F
wind
direction
speed
MPH
gust
MPH
rain 1hr
in
rain 24hr
in
rain mn
in
humidity
%
barometer
mb
20210917223527 74 242 7.0 13.0 0.00 0.00 0.00 38 1010.3
20210917223021 74 222 6.0 13.0 0.00 0.00 0.00 37 1010.3
20210917222516 74 263 6.0 12.0 0.00 0.00 0.00 38 1010.3
20210917222009 74 205 7.0 12.0 0.00 0.00 0.00 37 1010.3
20210917221503 74 242 8.0 18.0 0.00 0.00 0.00 37 1010.3
20210917220957 74 226 8.0 18.0 0.00 0.00 0.00 36 1010.3
20210917220450 74 217 8.0 15.0 0.00 0.00 0.00 36 1010.3
20210917215945 74 250 8.0 15.0 0.00 0.00 0.00 35 1010.4
20210917215440 74 252 6.0 15.0 0.00 0.00 0.00 34 1010.3
20210917214933 74 226 4.0 12.0 0.00 0.00 0.00 34 1010.4
20210917214428 74 217 5.0 15.0 0.00 0.00 0.00 34 1010.4
20210917213921 74 228 7.0 15.0 0.00 0.00 0.00 34 1010.4
20210917213415 74 239 6.0 13.0 0.00 0.00 0.00 34 1010.4
20210917212908 74 221 6.0 13.0 0.00 0.00 0.00 35 1010.5
20210917212418 73 240 8.0 18.0 0.00 0.00 0.00 35 1010.6
20210917211858 73 253 9.0 18.0 0.00 0.00 0.00 35 1010.6
20210917211349 73 267 7.0 16.0 0.00 0.00 0.00 34 1010.6
20210917210845 73 240 6.0 13.0 0.00 0.00 0.00 34 1010.6
20210917210339 73 135 5.0 13.0 0.00 0.00 0.00 34 1010.7
20210917205834 73 204 5.0 12.0 0.00 0.00 0.00 34 1010.7
20210917205327 72 167 7.0 16.0 0.00 0.00 0.00 35 1010.8
20210917204824 72 242 7.0 16.0 0.00 0.00 0.00 34 1010.8
20210917204324 72 228 7.0 16.0 0.00 0.00 0.00 34 1010.9
20210917203824 72 244 8.0 16.0 0.00 0.00 0.00 33 1011.0
20210917203324 72 244 7.0 16.0 0.00 0.00 0.00 33 1011.0
20210917202824 72 232 7.0 14.0 0.00 0.00 0.00 33 1011.0
20210917202323 72 243 7.0 18.0 0.00 0.00 0.00 34 1011.0
20210917201824 72 219 8.0 18.0 0.00 0.00 0.00 34 1011.0
20210917201327 72 221 8.0 16.0 0.00 0.00 0.00 34 1011.2
20210917200822 71 242 8.0 16.0 0.00 0.00 0.00 36 1011.3
20210917200323 71 226 9.0 20.0 0.00 0.00 0.00 36 1011.2
20210917195825 71 278 9.0 20.0 0.00 0.00 0.00 36 1011.2
20210917195322 71 155 9.0 18.0 0.00 0.00 0.00 35 1011.3
20210917194822 71 230 7.0 18.0 0.00 0.00 0.00 38 1011.3
20210917194324 71 169 6.0 12.0 0.00 0.00 0.00 38 1011.4
20210917193823 70 142 6.0 12.0 0.00 0.00 0.00 40 1011.4
20210917193324 70 256 6.0 11.0 0.00 0.00 0.00 40 1011.4
20210917192823 69 219 6.0 15.0 0.00 0.00 0.00 44 1011.6
20210917192318 69 222 6.0 15.0 0.00 0.00 0.00 42 1011.9
20210917191811 68 212 6.0 15.0 0.00 0.00 0.00 43 1011.9
20210917191305 68 169 6.0 15.0 0.00 0.00 0.00 43 1012.0
20210917190758 67 177 5.0 11.0 0.00 0.00 0.00 44 1012.1
20210917190253 66 169 5.0 11.0 0.00 0.00 0.00 46 1012.2
20210917185747 66 146 5.0 9.0 0.00 0.00 0.00 46 1012.3
20210917185241 65 172 5.0 10.0 0.00 0.00 0.00 46 1012.3
20210917184735 65 143 5.0 10.0 0.00 0.00 0.00 47 1012.3
20210917184229 65 166 4.0 8.0 0.00 0.00 0.00 47 1012.4
20210917183723 64 210 4.0 9.0 0.00 0.00 0.00 47 1012.5
20210917183217 64 204 4.0 8.0 0.00 0.00 0.00 48 1012.6
20210917182711 64 191 4.0 8.0 0.00 0.00 0.00 48 1012.6
20210917182205 63 170 4.0 8.0 0.00 0.00 0.00 48 1012.5
20210917181659 63 149 4.0 9.0 0.00 0.00 0.00 48 1012.6
20210917181154 63 221 5.0 9.0 0.00 0.00 0.00 48 1012.5
20210917180654 62 239 5.0 9.0 0.00 0.00 0.00 48 1012.6
20210917180155 62 155 4.0 9.0 0.00 0.00 0.00 48 1012.6
20210917175654 62 235 4.0 7.0 0.00 0.00 0.00 48 1012.7
20210917175154 62 219 4.0 8.0 0.00 0.00 0.00 47 1012.7
20210917174653 62 165 3.0 8.0 0.00 0.00 0.00 47 1012.7
20210917174155 62 177 3.0 7.0 0.00 0.00 0.00 47 1012.7
20210917173656 62 152 3.0 7.0 0.00 0.00 0.00 47 1012.7
20210917173154 62 172 2.0 6.0 0.00 0.00 0.00 47 1012.7
20210917172654 62 164 2.0 6.0 0.00 0.00 0.00 47 1012.7
20210917172155 61 232 2.0 5.0 0.00 0.00 0.00 47 1012.6
20210917171657 61 166 2.0 5.0 0.00 0.00 0.00 48 1012.6
20210917171153 61 222 2.0 5.0 0.00 0.00 0.00 48 1012.7
20210917170654 61 138 2.0 7.0 0.00 0.00 0.00 47 1012.6
20210917170155 61 225 3.0 7.0 0.00 0.00 0.00 46 1012.6
20210917165656 61 205 3.0 7.0 0.00 0.00 0.00 47 1012.7
20210917165155 60 183 2.0 7.0 0.00 0.00 0.00 47 1012.8
20210917164649 60 198 2.0 6.0 0.00 0.00 0.00 47 1012.8
20210917164143 60 197 2.0 6.0 0.00 0.00 0.00 47 1012.9
20210917163636 60 141 1.0 3.0 0.00 0.00 0.00 47 1012.9
20210917163131 60 232 1.0 4.0 0.00 0.00 0.00 46 1012.9
20210917162625 60 235 1.0 4.0 0.00 0.00 0.00 46 1012.9
20210917162126 60 155 1.0 3.0 0.00 0.00 0.00 44 1012.9
20210917161625 60 194 0.0 2.0 0.00 0.00 0.00 45 1013.0
20210917161125 60 167 0.0 1.0 0.00 0.00 0.00 45 1013.0
20210917160625 60 167 0.0 1.0 0.00 0.00 0.00 43 1013.0
20210917160124 60 167 0.0 1.0 0.00 0.00 0.00 43 1012.9
20210917155624 60 162 0.0 2.0 0.00 0.00 0.00 42 1012.9
20210917155120 59 257 0.0 2.0 0.00 0.00 0.00 42 1012.9
20210917154621 59 225 0.0 1.0 0.00 0.00 0.00 44 1013.0
20210917154121 59 190 0.0 0.0 0.00 0.00 0.00 43 1012.9
20210917153619 59 245 1.0 4.0 0.00 0.00 0.00 43 1012.8
20210917153116 59 146 1.0 4.0 0.00 0.00 0.00 41 1012.7
20210917152615 59 157 1.0 4.0 0.00 0.00 0.00 42 1012.7
20210917152117 58 110 2.0 6.0 0.00 0.00 0.00 42 1012.8
20210917151617 58 169 2.0 6.0 0.00 0.00 0.00 42 1012.9
20210917151114 58 141 2.0 4.0 0.00 0.00 0.00 42 1012.9
20210917150616 58 150 1.0 4.0 0.00 0.00 0.00 44 1013.0
20210917150113 57 141 0.0 2.0 0.00 0.00 0.00 45 1012.9
20210917145614 57 225 0.0 1.0 0.00 0.00 0.00 46 1013.0
20210917145115 57 225 0.0 1.0 0.00 0.00 0.00 46 1013.1
20210917144614 57 225 0.0 1.0 0.00 0.00 0.00 45 1013.0
20210917144113 57 224 0.0 1.0 0.00 0.00 0.00 45 1013.0
20210917143614 57 224 0.0 3.0 0.00 0.00 0.00 44 1013.0
20210917143114 57 183 1.0 3.0 0.00 0.00 0.00 44 1013.1
20210917142615 57 200 1.0 4.0 0.00 0.00 0.00 44 1013.2
20210917142115 57 167 2.0 4.0 0.00 0.00 0.00 44 1013.2
20210917141613 57 161 1.0 4.0 0.00 0.00 0.00 43 1013.2
20210917141116 57 200 1.0 4.0 0.00 0.00 0.00 44 1013.2
20210917140615 57 229 2.0 4.0 0.00 0.00 0.00 43 1013.2
20210917140115 57 235 1.0 4.0 0.00 0.00 0.00 43 1013.1
20210917135614 56 169 1.0 4.0 0.00 0.00 0.00 44 1013.1
20210917135114 57 218 1.0 4.0 0.00 0.00 0.00 44 1013.1
20210917134614 57 244 1.0 4.0 0.00 0.00 0.00 44 1013.1
20210917134113 57 203 1.0 4.0 0.00 0.00 0.00 43 1013.1
20210917133613 57 226 1.0 3.0 0.00 0.00 0.00 42 1013.1
20210917133116 57 156 1.0 5.0 0.00 0.00 0.00 43 1013.1
20210917132614 57 210 2.0 5.0 0.00 0.00 0.00 42 1013.1
20210917132114 57 169 2.0 5.0 0.00 0.00 0.00 42 1013.0
20210917131614 57 135 2.0 5.0 0.00 0.00 0.00 42 1013.1
20210917131115 57 187 2.0 4.0 0.00 0.00 0.00 42 1013.1
20210917130615 57 170 2.0 4.0 0.00 0.00 0.00 42 1013.1
20210917130113 57 128 1.0 4.0 0.00 0.00 0.00 43 1013.2
20210917125615 56 159 1.0 4.0 0.00 0.00 0.00 43 1013.2
20210917125115 56 183 0.0 2.0 0.00 0.00 0.00 43 1013.2
20210917124614 57 205 0.0 1.0 0.00 0.00 0.00 43 1013.1
20210917124111 57 205 0.0 2.0 0.00 0.00 0.00 43 1013.1
20210917123611 57 205 1.0 2.0 0.00 0.00 0.00 43 1013.1
20210917123109 57 162 1.0 2.0 0.00 0.00 0.00 44 1013.1
20210917122611 57 136 0.0 2.0 0.00 0.00 0.00 44 1013.2
20210917122112 57 195 0.0 1.0 0.00 0.00 0.00 47 1013.3
20210917121612 57 195 0.0 2.0 0.00 0.00 0.00 47 1013.3
20210917121111 57 197 1.0 2.0 0.00 0.00 0.00 47 1013.3
20210917120610 57 231 1.0 3.0 0.00 0.00 0.00 47 1013.3
20210917120111 57 214 2.0 3.0 0.00 0.00 0.00 48 1013.3
20210917115607 57 215 2.0 5.0 0.00 0.00 0.00 48 1013.3
20210917115107 57 197 2.0 5.0 0.00 0.00 0.00 48 1013.3
20210917114606 57 208 2.0 6.0 0.00 0.00 0.00 48 1013.3
20210917114107 58 211 2.0 6.0 0.00 0.00 0.00 49 1013.3
20210917113606 58 177 3.0 6.0 0.00 0.00 0.00 48 1013.2
20210917113106 58 163 3.0 6.0 0.00 0.00 0.00 48 1013.2
20210917112607 58 181 2.0 5.0 0.00 0.00 0.00 48 1013.2
20210917112106 58 173 1.0 5.0 0.00 0.00 0.00 48 1013.3
20210917111608 58 204 2.0 7.0 0.00 0.00 0.00 48 1013.2
20210917111102 58 141 2.0 7.0 0.00 0.00 0.00 47 1013.2
20210917110601 58 173 1.0 5.0 0.00 0.00 0.00 47 1013.2
20210917110101 58 169 1.0 4.0 0.00 0.00 0.00 47 1013.3
20210917105603 58 166 2.0 6.0 0.00 0.00 0.00 47 1013.2
20210917105103 58 201 1.0 6.0 0.00 0.00 0.00 47 1013.3
20210917104602 58 191 1.0 4.0 0.00 0.00 0.00 46 1013.3
20210917104102 58 144 1.0 7.0 0.00 0.00 0.00 46 1013.3
20210917103601 58 198 2.0 7.0 0.00 0.00 0.00 45 1013.4
20210917103103 58 174 1.0 5.0 0.00 0.00 0.00 45 1013.4
20210917102601 58 172 1.0 3.0 0.00 0.00 0.00 45 1013.4
20210917102102 58 155 1.0 4.0 0.00 0.00 0.00 44 1013.4
20210917101603 59 178 1.0 5.0 0.00 0.00 0.00 43 1013.4
20210917101102 59 179 1.0 5.0 0.00 0.00 0.00 43 1013.4
20210917100603 59 150 1.0 4.0 0.00 0.00 0.00 42 1013.4
20210917100102 59 146 0.0 4.0 0.00 0.00 0.00 41 1013.4
20210917095603 59 131 0.0 3.0 0.00 0.00 0.00 40 1013.3
20210917095101 59 158 1.0 3.0 0.00 0.00 0.00 39 1013.3
20210917094601 59 120 1.0 3.0 0.00 0.00 0.00 38 1013.4
20210917094101 59 145 1.0 3.0 0.00 0.00 0.00 38 1013.3
20210917093601 58 155 1.0 4.0 0.00 0.00 0.00 38 1013.3
20210917093102 58 163 1.0 4.0 0.00 0.00 0.00 39 1013.2
20210917092603 59 174 1.0 2.0 0.00 0.00 0.00 38 1013.2
20210917092102 59 176 1.0 3.0 0.00 0.00 0.00 38 1013.1
20210917091601 59 208 1.0 4.0 0.00 0.00 0.00 37 1013.1
20210917091103 60 225 1.0 4.0 0.00 0.00 0.00 37 1013.1
20210917090601 60 204 1.0 4.0 0.00 0.00 0.00 36 1013.0
20210917090102 60 160 1.0 5.0 0.00 0.00 0.00 35 1013.0
20210917085601 61 138 1.0 5.0 0.00 0.00 0.00 35 1013.0
20210917085101 61 90 2.0 6.0 0.00 0.00 0.00 35 1013.0
20210917084603 61 103 2.0 6.0 0.00 0.00 0.00 35 1013.0
20210917084102 61 86 2.0 6.0 0.00 0.00 0.00 35 1013.0
20210917083601 61 101 2.0 6.0 0.00 0.00 0.00 35 1013.0
20210917083101 61 89 2.0 5.0 0.00 0.00 0.00 35 1013.0
20210917082604 61 96 2.0 5.0 0.00 0.00 0.00 35 1013.1
20210917082059 61 99 2.0 5.0 0.00 0.00 0.00 35 1013.1
20210917081559 61 68 2.0 7.0 0.00 0.00 0.00 35 1013.1
20210917081058 61 37 1.0 7.0 0.00 0.00 0.00 35 1013.2
20210917080558 61 58 1.0 3.0 0.00 0.00 0.00 35 1013.3
20210917080058 62 80 2.0 6.0 0.00 0.00 0.00 35 1013.2
20210917075557 62 69 2.0 6.0 0.00 0.00 0.00 34 1013.1
20210917075057 62 47 3.0 7.0 0.00 0.00 0.00 35 1013.2
20210917074558 62 84 4.0 9.0 0.00 0.00 0.00 34 1013.2
20210917074059 62 68 5.0 9.0 0.00 0.00 0.00 34 1013.1
20210917073559 62 34 5.0 8.0 0.00 0.00 0.00 34 1013.1
20210917073059 62 70 5.0 9.0 0.00 0.00 0.00 34 1013.1
20210917072600 62 65 5.0 9.0 0.00 0.00 0.00 34 1013.1
20210917072059 62 29 5.0 11.0 0.00 0.00 0.00 33 1013.1
20210917071557 62 58 4.0 11.0 0.00 0.00 0.00 33 1013.0
20210917071057 62 37 4.0 11.0 0.00 0.00 0.00 33 1012.9
20210917070558 63 53 4.0 11.0 0.00 0.00 0.00 33 1013.0
20210917070057 62 89 4.0 10.0 0.00 0.00 0.00 33 1013.0
20210917065559 62 33 4.0 11.0 0.00 0.00 0.00 33 1013.0
20210917065053 62 23 4.0 11.0 0.00 0.00 0.00 33 1013.1
20210917064547 62 37 4.0 8.0 0.00 0.00 0.00 33 1013.1
20210917064041 62 40 4.0 8.0 0.00 0.00 0.00 33 1013.1
20210917063535 62 58 3.0 7.0 0.00 0.00 0.00 33 1013.0
20210917063028 62 43 4.0 11.0 0.00 0.00 0.00 33 1013.1
20210917062524 63 46 5.0 12.0 0.00 0.00 0.00 33 1013.2
20210917062017 63 51 5.0 12.0 0.00 0.00 0.00 33 1013.2
20210917061511 63 53 5.0 9.0 0.00 0.00 0.00 32 1013.1
20210917061005 63 64 5.0 9.0 0.00 0.00 0.00 32 1013.2
20210917060459 63 54 5.0 12.0 0.00 0.00 0.00 32 1013.2
20210917055953 63 56 4.0 12.0 0.00 0.00 0.00 32 1013.2
20210917055447 63 67 4.0 8.0 0.00 0.00 0.00 31 1013.1
20210917054942 63 35 4.0 9.0 0.00 0.00 0.00 31 1013.2
20210917054436 64 30 4.0 9.0 0.00 0.00 0.00 31 1013.3
20210917053929 64 63 4.0 9.0 0.00 0.00 0.00 31 1013.3
20210917053423 64 21 5.0 9.0 0.00 0.00 0.00 31 1013.3
20210917052918 64 56 6.0 10.0 0.00 0.00 0.00 30 1013.3
20210917052412 64 62 5.0 10.0 0.00 0.00 0.00 30 1013.4
20210917051905 64 43 5.0 10.0 0.00 0.00 0.00 30 1013.3
20210917051359 64 69 5.0 11.0 0.00 0.00 0.00 30 1013.3
20210917050854 64 72 5.0 11.0 0.00 0.00 0.00 30 1013.4
20210917050347 65 57 4.0 10.0 0.00 0.00 0.00 30 1013.4
20210917045841 65 61 5.0 11.0 0.00 0.00 0.00 30 1013.4
20210917045335 65 81 5.0 11.0 0.00 0.00 0.00 30 1013.4
20210917044830 65 56 4.0 10.0 0.00 0.00 0.00 30 1013.4
20210917044323 65 22 5.0 11.0 0.00 0.00 0.00 30 1013.5
20210917043818 65 92 5.0 11.0 0.00 0.00 0.00 30 1013.6
20210917043310 65 68 4.0 11.0 0.00 0.00 0.00 30 1013.6
20210917042805 65 49 5.0 14.0 0.00 0.00 0.00 30 1013.6
20210917042259 65 44 6.0 14.0 0.00 0.00 0.00 30 1013.7
20210917041753 66 72 6.0 14.0 0.00 0.00 0.00 30 1013.7
20210917041247 66 47 6.0 14.0 0.00 0.00 0.00 30 1013.8
20210917040741 66 48 5.0 14.0 0.00 0.00 0.00 30 1014.0
20210917040235 66 64 5.0 12.0 0.00 0.00 0.00 30 1013.9
20210917035729 66 16 5.0 12.0 0.00 0.00 0.00 30 1014.1
20210917035223 66 53 5.0 13.0 0.00 0.00 0.00 30 1014.0
20210917034717 66 62 5.0 13.0 0.00 0.00 0.00 30 1014.0
20210917034212 66 78 4.0 13.0 0.00 0.00 0.00 30 1014.1
20210917033706 66 348 5.0 13.0 0.00 0.00 0.00 30 1014.0
20210917033159 66 101 6.0 15.0 0.00 0.00 0.00 30 1013.9
20210917032656 66 59 7.0 15.0 0.00 0.00 0.00 30 1013.9
20210917032155 66 25 6.0 12.0 0.00 0.00 0.00 30 1013.9
20210917031657 66 65 6.0 17.0 0.00 0.00 0.00 30 1013.9
20210917031156 67 82 6.0 17.0 0.00 0.00 0.00 30 1014.0
20210917030655 67 44 6.0 14.0 0.00 0.00 0.00 30 1013.9
20210917030154 67 67 7.0 14.0 0.00 0.00 0.00 30 1013.8
20210917025656 67 15 6.0 12.0 0.00 0.00 0.00 30 1013.8
20210917025154 67 63 5.0 12.0 0.00 0.00 0.00 30 1013.8
20210917024652 67 64 6.0 12.0 0.00 0.00 0.00 30 1013.8
20210917024153 67 39 5.0 11.0 0.00 0.00 0.00 30 1013.8
20210917023652 67 31 5.0 12.0 0.00 0.00 0.00 30 1013.9
20210917023150 67 23 5.0 12.0 0.00 0.00 0.00 30 1014.0
20210917022651 67 53 5.0 11.0 0.00 0.00 0.00 30 1014.0
20210917022149 67 347 6.0 11.0 0.00 0.00 0.00 30 1014.1
20210917021647 67 29 6.0 12.0 0.00 0.00 0.00 30 1014.2
20210917021145 67 8 5.0 12.0 0.00 0.00 0.00 30 1014.3
20210917020648 67 9 4.0 11.0 0.00 0.00 0.00 30 1014.4
20210917020145 67 60 4.0 12.0 0.00 0.00 0.00 30 1014.4
20210917015645 68 65 6.0 12.0 0.00 0.00 0.00 29 1014.6
20210917015139 68 37 6.0 13.0 0.00 0.00 0.00 29 1014.6
20210917014633 68 39 6.0 13.0 0.00 0.00 0.00 29 1014.7
20210917014127 68 58 6.0 14.0 0.00 0.00 0.00 29 1014.8
20210917013621 69 76 6.0 14.0 0.00 0.00 0.00 29 1014.9
20210917013115 69 81 6.0 14.0 0.00 0.00 0.00 29 1014.9
20210917012609 69 333 6.0 13.0 0.00 0.00 0.00 29 1014.9
20210917012106 69 48 5.0 14.0 0.00 0.00 0.00 29 1015.0
20210917011557 69 65 5.0 14.0 0.00 0.00 0.00 28 1015.2
20210917011050 70 50 4.0 13.0 0.00 0.00 0.00 28 1015.1
20210917010546 70 71 6.0 18.0 0.00 0.00 0.00 29 1015.2
20210917010039 70 39 7.0 18.0 0.00 0.00 0.00 28 1015.1
20210917005534 70 36 6.0 15.0 0.00 0.00 0.00 28 1015.1
20210917005027 70 18 7.0 15.0 0.00 0.00 0.00 28 1015.1
20210917004521 71 11 7.0 14.0 0.00 0.00 0.00 28 1015.1
20210917004015 71 68 7.0 14.0 0.00 0.00 0.00 28 1015.2
20210917003509 71 352 7.0 19.0 0.00 0.00 0.00 28 1015.2
20210917003003 71 30 5.0 19.0 0.00 0.00 0.00 27 1015.3
20210917002457 71 53 4.0 13.0 0.00 0.00 0.00 28 1015.4
20210917001952 71 300 4.0 11.0 0.00 0.00 0.00 28 1015.5
20210917001447 71 61 5.0 14.0 0.00 0.00 0.00 28 1015.4
20210917000939 71 29 5.0 14.0 0.00 0.00 0.00 28 1015.5
20210917000433 71 44 5.0 13.0 0.00 0.00 0.00 29 1015.5
20210916235928 71 57 6.0 13.0 0.00 0.00 0.00 29 1015.4
20210916235421 71 35 5.0 13.0 0.00 0.00 0.00 28 1015.5
20210916234915 72 47 6.0 11.0 0.00 0.00 0.00 29 1015.5
20210916234409 72 13 6.0 12.0 0.00 0.00 0.00 29 1015.6
20210916233903 72 82 5.0 14.0 0.00 0.00 0.00 28 1015.8
20210916233357 72 102 6.0 14.0 0.00 0.00 0.00 28 1015.9
20210916232852 72 39 7.0 14.0 0.00 0.00 0.00 28 1016.1
20210916232346 72 56 7.0 14.0 0.00 0.00 0.00 28 1016.2
20210916231839 72 18 6.0 14.0 0.00 0.00 0.00 28 1016.2
20210916231333 72 65 6.0 13.0 0.00 0.00 0.00 28 1016.2
20210916230827 73 71 5.0 10.0 0.00 0.00 0.00 29 1016.2
20210916230321 73 53 5.0 13.0 0.00 0.00 0.00 29 1016.4
20210916225815 72 53 4.0 13.0 0.00 0.00 0.00 28 1016.7
20210916225310 72 315 5.0 13.0 0.00 0.00 0.00 30 1016.7
20210916224803 73 23 5.0 13.0 0.00 0.00 0.00 29 1016.8
20210916224257 72 50 4.0 13.0 0.00 0.00 0.00 29 1016.8